Angel Fire, NM

5:39 AM MST on November 13, 2019 (GMT -0700)
Angel Fire

Weather History for KAXX - June, 2019

Change the Weather History Date:

Wednesday, June 5, 2019

  Actual Average (KSKX) Record (KSKX)
Temperature  
Mean Temperature 48 °F -  
Max Temperature 57 °F 76 °F 89 °F (2018)
Min Temperature 40 °F 40 °F 28 °F (1999)
Degree Days  
Heating Degree Days 16    
Moisture  
Dew Point 41 °F    
Average Humidity 80    
Maximum Humidity 95    
Minimum Humidity 48    
Precipitation  
Precipitation 0.07 in - - ()
Sea Level Pressure  
Sea Level Pressure 30.28 in    
Wind  
Wind Speed 3 mph (NE)    
Max Wind Speed 16 mph    
Max Gust Speed 18 mph    
Visibility 10 miles    
Events Rain    
Averages and records for this station are not official NWS values.
T = Trace of Precipitation, MM = Missing Value Source: NWS Daily Summary

Daily Weather History Graph

Daily Weather History Graph

Search for Another Location

Airport or City:

Astronomy

Jun. 05, 2019 Rise Set
Actual Time 5:43 AM MDT 8:15 PM MDT
Civil Twilight 5:13 AM MDT 8:46 PM MDT
Nautical Twilight 4:36 AM MDT 9:23 PM MDT
Astronomical Twilight 3:54 AM MDT 10:05 PM MDT
Moon 7:51 AM MDT (6/5) 10:45 PM MDT (6/5)
Length of Visible Light 15h 32m
Length of Day
14h 32m
Waxing Crescent, 7% of the Moon is Illuminated
Jun 5
Waxing Crescent
Jun 10
First Quarter
Jun 17
Full
Jun 25
Last Quarter
Jul 2
New

Hourly Weather History & Observations

Time (MDT) Temp. Windchill Dew Point Humidity Pressure Visibility Wind Dir Wind Speed Gust Speed Precip Events Conditions
12:10 AM 40.1 °F - 38.3 °F 93% 30.31 in 10.0 mi Calm Calm - N/A   Unknown
12:35 AM 40.8 °F - 38.7 °F 92% 30.30 in 10.0 mi Calm Calm - N/A   Unknown
12:55 AM 41.0 °F - 38.8 °F 92% 30.30 in 10.0 mi Calm Calm - N/A   Unknown
1:15 AM 41.0 °F - 38.7 °F 91% 30.29 in 10.0 mi Calm Calm - N/A   Unknown
1:35 AM 40.5 °F - 38.8 °F 94% 30.29 in 10.0 mi Calm Calm - N/A   Unknown
1:55 AM 41.0 °F 36.4 °F 39.2 °F 93% 30.29 in 10.0 mi SSE 6.9 mph - N/A   Unknown
2:15 AM 41.4 °F - 39.2 °F 92% 30.29 in 10.0 mi Calm Calm - N/A   Unknown
2:35 AM 41.5 °F 38.6 °F 39.6 °F 93% 30.28 in 10.0 mi East 4.6 mph - N/A   Unknown
2:55 AM 40.8 °F - 39.0 °F 93% 30.28 in 10.0 mi Calm Calm - N/A   Unknown
3:15 AM 41.5 °F - 39.0 °F 91% 30.28 in 10.0 mi Calm Calm - N/A   Unknown
3:35 AM 40.6 °F 38.6 °F 38.7 °F 93% 30.29 in 10.0 mi South 3.5 mph - N/A   Unknown
3:55 AM 41.5 °F - 39.4 °F 92% 30.29 in 10.0 mi Calm Calm - N/A   Unknown
4:15 AM 42.1 °F - 39.9 °F 92% 30.29 in 10.0 mi Calm Calm - N/A   Unknown
4:35 AM 41.9 °F - 39.4 °F 91% 30.28 in 10.0 mi Calm Calm - N/A   Unknown
4:55 AM 41.5 °F - 39.4 °F 92% 30.28 in 10.0 mi Calm Calm - N/A   Unknown
5:15 AM 41.4 °F - 39.7 °F 94% 30.28 in 10.0 mi Calm Calm - N/A   Unknown
5:35 AM 41.0 °F - 38.8 °F 92% 30.27 in 10.0 mi Calm Calm - N/A   Unknown
5:55 AM 41.2 °F - 39.2 °F 93% 30.28 in 10.0 mi Calm Calm - N/A   Unknown
6:15 AM 40.3 °F - 39.0 °F 95% 30.28 in 10.0 mi Calm Calm - N/A   Unknown
6:35 AM 41.0 °F - 39.4 °F 94% 30.28 in 10.0 mi Calm Calm - N/A   Unknown
6:55 AM 42.1 °F - 39.7 °F 91% 30.28 in 10.0 mi Calm Calm - N/A   Unknown
7:15 AM 42.8 °F - 40.1 °F 90% 30.29 in 10.0 mi Calm Calm - N/A   Unknown
7:35 AM 42.8 °F - 40.3 °F 91% 30.29 in 10.0 mi Calm Calm - N/A   Unknown
7:55 AM 43.7 °F 41.1 °F 41.4 °F 91% 30.30 in 10.0 mi SE 4.6 mph - N/A Rain Light Rain
8:15 AM 43.9 °F - 41.4 °F 91% 30.31 in 10.0 mi Calm Calm - N/A Rain Light Rain
8:30 AM 43.9 °F - 41.9 °F 93% 30.31 in 5.0 mi Calm Calm - 0.01 in Rain Light Rain
8:50 AM 43.9 °F - 41.7 °F 92% 30.33 in 7.0 mi Calm Calm - 0.02 in Rain Light Rain
9:15 AM 44.8 °F 40.4 °F 43.0 °F 93% 30.33 in 7.0 mi SSE 8.1 mph - 0.01 in Rain Light Rain
9:35 AM 44.1 °F 39.0 °F 41.5 °F 91% 30.33 in 4.0 mi SW 9.2 mph - 0.04 in Rain Rain
9:55 AM 44.6 °F 41.4 °F 41.2 °F 88% 30.31 in 10.0 mi West 5.8 mph - 0.05 in   Unknown
10:15 AM 45.5 °F 44.2 °F 39.9 °F 81% 30.31 in 10.0 mi North 3.5 mph - N/A   Unknown
10:35 AM 45.7 °F 44.4 °F 40.6 °F 83% 30.32 in 10.0 mi North 3.5 mph - N/A   Light Drizzle
10:55 AM 45.9 °F 42.9 °F 41.7 °F 85% 30.30 in 10.0 mi NE 5.8 mph - N/A   Unknown
11:15 AM 47.7 °F - 42.4 °F 82% 30.31 in 10.0 mi NE 5.8 mph - N/A   Unknown
11:35 AM 49.1 °F - 41.9 °F 76% 30.30 in 10.0 mi NNE 6.9 mph - N/A   Unknown
11:55 AM 49.5 °F - 41.7 °F 75% 30.29 in 10.0 mi NNE 8.1 mph - N/A   Unknown
12:15 PM 50.0 °F - 42.6 °F 76% 30.29 in 10.0 mi North 6.9 mph - N/A   Unknown
12:35 PM 50.0 °F - 42.6 °F 76% 30.29 in 10.0 mi NNE 8.1 mph - N/A   Unknown
12:55 PM 50.9 °F - 41.0 °F 69% 30.29 in 10.0 mi NE 8.1 mph - N/A   Unknown
1:15 PM 51.8 °F - 42.8 °F 71% 30.29 in 10.0 mi NE 10.4 mph - N/A   Unknown
1:35 PM 52.9 °F - 41.2 °F 64% 30.28 in 10.0 mi North 13.8 mph - N/A   Unknown
1:55 PM 54.5 °F - 41.2 °F 61% 30.28 in 10.0 mi North 12.7 mph - N/A   Unknown
2:15 PM 54.1 °F - 39.4 °F 57% 30.26 in 10.0 mi NNE 16.1 mph - N/A   Unknown
2:35 PM 53.1 °F - 38.5 °F 58% 30.26 in 10.0 mi NNE 15.0 mph - N/A   Unknown
2:55 PM 53.4 °F - 39.7 °F 60% 30.26 in 10.0 mi NNE 16.1 mph - N/A   Unknown
3:15 PM 55.0 °F - 40.5 °F 58% 30.26 in 10.0 mi NNE 16.1 mph - N/A   Unknown
3:35 PM 55.8 °F - 40.8 °F 57% 30.26 in 10.0 mi NNE 15.0 mph 18.4 mph N/A   Unknown
3:55 PM 56.1 °F - 38.8 °F 52% 30.25 in 10.0 mi NNE 9.2 mph - N/A   Unknown
4:15 PM 57.9 °F - 38.5 °F 48% 30.24 in 10.0 mi NE 10.4 mph - N/A   Unknown
4:35 PM 57.2 °F - 38.7 °F 50% 30.23 in 10.0 mi North 8.1 mph - N/A   Unknown
4:55 PM 57.2 °F - 37.6 °F 48% 30.23 in 10.0 mi Calm Calm - N/A   Unknown
5:15 PM 57.0 °F - 39.0 °F 51% 30.22 in 10.0 mi NNW 5.8 mph - N/A   Unknown
5:35 PM 55.2 °F - 41.0 °F 59% 30.23 in 10.0 mi SSW 4.6 mph - N/A   Unknown
5:55 PM 53.6 °F - 42.1 °F 65% 30.23 in 10.0 mi SSW 6.9 mph - N/A   Unknown
6:15 PM 52.7 °F - 41.7 °F 66% 30.23 in 10.0 mi South 11.5 mph - N/A   Unknown
6:35 PM 52.5 °F - 42.4 °F 69% 30.23 in 10.0 mi SSW 9.2 mph - N/A   Unknown
6:55 PM 52.0 °F - 42.3 °F 69% 30.22 in 10.0 mi South 9.2 mph - N/A   Unknown
7:15 PM 52.7 °F - 42.6 °F 69% 30.23 in 10.0 mi SSE 5.8 mph - N/A   Unknown
7:35 PM 52.3 °F - 42.3 °F 69% 30.24 in 10.0 mi SSE 3.5 mph - N/A   Unknown
7:55 PM 51.1 °F - 41.9 °F 71% 30.25 in 10.0 mi SE 5.8 mph - N/A   Unknown
8:15 PM 49.1 °F - 42.6 °F 78% 30.26 in 10.0 mi SSW 4.6 mph - N/A   Unknown
8:35 PM 49.5 °F - 42.4 °F 77% 30.27 in 10.0 mi South 4.6 mph - N/A   Unknown
8:55 PM 48.6 °F - 42.8 °F 80% 30.27 in 10.0 mi South 4.6 mph - N/A   Unknown
9:15 PM 47.1 °F - 42.8 °F 85% 30.27 in 10.0 mi Calm Calm - N/A   Unknown
9:35 PM 47.5 °F - 43.2 °F 85% 30.29 in 10.0 mi Calm Calm - N/A   Unknown
9:55 PM 46.6 °F - 43.9 °F 90% 30.29 in 7.0 mi NNE 10.4 mph - N/A Rain Rain
10:15 PM 45.3 °F - 42.8 °F 91% 30.28 in 10.0 mi Calm Calm - N/A   Unknown
10:35 PM 44.4 °F - 42.6 °F 93% 30.28 in 10.0 mi Calm Calm - N/A   Unknown
10:55 PM 43.3 °F 40.7 °F 41.5 °F 93% 30.28 in 10.0 mi ENE 4.6 mph - N/A   Unknown
11:15 PM 41.5 °F 38.6 °F 39.9 °F 94% 30.28 in 10.0 mi West 4.6 mph - N/A   Unknown
11:35 PM 41.2 °F - 39.7 °F 95% 30.28 in 10.0 mi Calm Calm - N/A   Unknown
11:55 PM 41.0 °F - 39.7 °F 95% 30.28 in 10.0 mi Calm Calm - N/A   Unknown